Wind_Speed
18 17 16 15 17 15 12 12 11 11 11 11 10 10 9 9 9 9 8 8 8 7 8 8 8 8 9 9 10 10 11 12 12 13 14 15 15 15 15 15 15 15 15 14 14 14 14 13 12
19 18 16 18 17 14 13 13 12 12 11 11 11 10 10 9 9 9 8 8 9 8 8 8 8 8 9 9 11 11 12 12 12 13 14 15 15 15 15 15 15 15 15 15 14 14 13 13 12
19 19 19 19 16 14 14 13 13 13 12 12 12 11 10 10 10 9 8 8 8 8 8 8 8 9 9 10 11 11 12 12 12 13 14 14 14 15 15 15 15 15 15 15 14 14 13 12 12
18 20 20 18 17 16 15 15 14 14 13 13 13 12 11 10 10 9 9 8 8 8 8 9 9 9 9 10 11 11 12 12 12 13 13 14 14 14 14 15 14 14 14 14 13 13 12 11 11
18 21 19 17 17 17 16 16 15 15 14 14 14 13 12 11 11 10 9 9 8 8 8 9 9 10 10 10 10 11 11 11 11 12 13 13 14 14 15 15 13 14 13 13 13 12 11 11 10
19 19 16 16 17 17 16 16 16 16 16 15 15 14 13 12 11 11 10 9 9 9 9 9 9 10 10 10 10 10 11 11 11 12 13 13 14 14 15 13 13 13 12 12 11 11 11 10 9
19 17 16 17 17 17 17 16 16 17 16 16 15 14 14 13 12 12 11 10 10 10 10 10 10 10 10 9 10 11 11 11 11 12 12 13 13 14 14 13 12 12 11 11 11 10 10 9 8
18 17 16 17 17 17 17 16 17 17 16 16 15 15 14 13 12 12 12 12 12 11 11 10 10 10 10 10 10 10 11 11 11 11 12 12 13 13 13 12 11 11 9 9 9 9 8 7 7
17 16 15 15 16 17 17 17 17 17 17 16 16 16 15 14 13 12 12 12 12 11 11 10 10 10 10 10 11 10 10 11 11 11 11 12 12 12 12 11 11 10 9 8 8 7 7 6 6
15 14 14 15 16 17 18 18 17 17 17 17 16 16 15 14 13 13 12 12 11 11 11 11 10 10 10 10 11 11 11 11 11 11 11 11 11 11 10 10 9 9 8 8 7 6 5 5 5
13 13 14 15 16 17 18 18 18 18 17 17 16 15 15 14 14 13 12 11 11 11 10 10 10 10 10 11 11 11 11 11 11 11 10 10 10 9 9 9 8 8 7 7 6 5 5 4 3
11 12 12 14 15 17 18 18 18 18 17 17 16 15 15 14 13 13 12 11 11 10 10 10 10 10 10 10 11 11 10 10 10 10 9 8 9 9 8 7 7 6 6 5 4 4 3 2 2
9 10 11 12 15 16 16 17 17 17 17 17 16 16 15 13 13 12 12 11 10 10 10 10 10 10 10 10 11 11 11 10 10 9 9 8 8 7 7 6 5 4 4 4 3 3 2 2 1
8 8 9 11 13 14 15 16 16 16 16 16 16 16 15 14 13 12 11 11 11 10 10 10 10 10 10 10 11 12 11 10 9 9 8 8 8 7 5 4 4 4 3 3 3 2 2 2 2
7 8 8 9 11 12 13 15 15 15 15 15 15 15 15 14 13 13 12 11 10 10 9 10 10 10 10 10 10 10 10 10 8 8 7 7 6 5 4 4 4 3 3 2 2 2 2 2 2
5 6 7 7 8 10 12 14 13 13 14 14 14 14 14 14 13 13 12 12 11 11 10 10 10 10 10 10 9 9 9 9 8 7 6 6 5 4 4 3 2 2 3 2 2 2 3 3 3
3 4 4 5 6 8 10 11 11 12 12 13 13 13 13 12 12 12 12 11 11 11 11 11 10 10 10 10 9 9 8 8 8 7 6 5 4 4 4 3 2 1 2 2 3 3 4 5 5
4 3 2 3 4 6 7 8 9 10 11 11 12 11 11 11 11 11 11 11 11 10 10 10 10 10 10 9 9 9 9 8 7 6 6 5 4 4 4 3 2 1 1 2 3 3 4 5 5
7 5 3 2 2 3 5 6 6 7 9 9 10 10 10 10 10 10 10 11 10 10 9 9 9 9 9 8 8 8 8 8 7 6 6 4 3 3 3 2 2 1 2 2 3 4 4 5 6
9 6 4 3 2 1 2 3 4 4 6 7 8 8 8 8 8 9 9 9 9 9 9 9 9 8 8 8 7 7 7 7 7 6 5 4 3 3 2 2 2 2 2 2 3 3 5 6 7
11 9 7 5 3 2 1 2 2 2 3 5 5 6 6 7 6 6 7 8 8 8 8 8 8 8 8 7 7 7 6 6 6 5 5 5 3 3 2 1 2 3 3 3 4 5 6 7 7
13 12 11 8 5 5 3 3 4 3 2 3 3 4 4 5 4 4 4 5 6 6 6 7 7 7 7 7 7 7 7 7 6 6 6 5 5 4 4 3 3 3 4 5 5 6 7 7 8
16 15 13 11 9 7 7 4 5 5 3 3 2 3 3 3 3 3 3 3 4 4 5 5 6 6 7 7 7 6 7 6 6 7 6 6 6 5 5 5 5 5 5 6 6 7 8 8 9
18 17 15 12 10 10 9 7 7 7 5 4 3 3 3 3 3 3 3 2 2 3 3 4 5 5 6 7 7 6 6 6 6 7 7 7 7 6 6 7 7 7 7 7 7 8 9 9 10
21 18 15 13 13 13 12 10 9 8 7 6 5 5 5 4 3 3 3 3 2 2 2 3 4 5 5 6 6 7 6 6 6 7 7 7 7 7 7 8 8 8 8 8 8 9 10 11 11
23 21 19 16 14 14 15 13 10 9 8 7 7 7 6 5 4 4 3 3 3 3 3 3 3 4 5 5 6 7 7 7 7 7 7 7 8 8 8 8 8 9 9 9 9 10 11 12 12
26 25 21 18 17 15 16 15 12 10 9 9 9 8 8 7 6 6 5 4 4 4 4 5 5 5 5 6 6 7 8 8 8 8 8 8 8 8 9 9 9 9 10 10 11 11 12 12 13
28 25 24 21 19 18 17 16 13 12 11 11 11 10 9 9 8 7 7 6 6 6 6 7 7 7 6 6 7 8 8 9 9 8 8 9 9 10 10 10 11 11 12 13 13 13 13 13 14
29 28 26 24 22 20 18 17 16 14 12 11 11 11 11 10 9 9 8 8 8 8 8 8 8 8 7 7 8 8 9 10 10 11 10 10 11 11 11 12 13 13 13 14 14 15 15 15 15
30 29 28 26 25 23 20 19 19 16 14 13 12 12 12 11 11 10 10 10 10 10 10 10 10 10 9 9 10 10 11 12 12 12 12 12 12 13 13 14 14 14 14 14 15 15 16 16 16
Wind_Direction
60 60 61 64 64 64 69 73 74 77 80 85 89 94 99 100 101 101 98 97 96 100 100 98 100 99 100 106 111 108 108 107 106 110 113 112 113 115 115 118 119 120 121 120 122 122 122 121 120
62 60 63 64 66 65 69 72 70 72 76 80 84 88 92 97 95 96 96 94 94 97 98 98 101 102 101 105 111 111 111 112 112 114 116 113 112 117 118 117 117 120 121 120 121 122 123 121 120
62 61 63 64 67 67 68 68 67 70 73 75 80 84 88 92 90 92 95 94 95 96 98 101 105 106 107 108 109 111 113 114 115 117 119 118 117 117 120 118 118 119 120 121 122 122 123 123 122
62 63 61 62 62 64 65 66 67 70 72 75 79 80 83 86 87 91 96 95 98 100 103 108 109 109 112 112 111 113 116 115 117 117 119 120 120 118 120 121 119 122 122 123 123 122 124 124 123
63 63 59 57 60 62 64 66 66 68 72 75 79 81 81 83 84 88 96 98 98 102 108 111 110 109 111 111 110 112 116 118 121 119 120 122 121 120 120 122 122 126 124 124 126 125 125 123 123
64 63 61 60 60 62 63 64 64 68 73 74 76 78 80 81 83 86 91 97 99 104 109 110 110 107 109 113 114 115 119 123 122 121 120 122 121 122 121 120 120 123 122 122 124 126 126 124 124
65 64 63 62 61 60 62 64 65 66 70 71 73 74 75 78 81 85 88 91 97 100 103 104 105 107 108 106 119 118 119 121 123 124 126 126 124 122 122 120 117 119 121 121 122 123 122 123 125
67 63 60 60 61 61 62 64 66 67 69 71 71 71 73 75 78 82 87 91 95 99 102 103 103 105 105 105 117 120 122 123 127 127 130 128 127 124 123 121 119 118 118 119 118 119 117 120 125
66 65 63 62 62 62 63 65 67 68 66 69 72 70 71 75 77 81 87 91 94 97 101 104 105 102 102 106 115 121 125 125 127 129 130 128 127 126 126 125 123 121 119 118 119 119 119 121 125
69 69 67 65 65 64 64 65 66 67 66 66 71 71 70 72 75 79 86 89 93 95 99 104 106 105 102 102 110 118 121 124 125 129 130 131 129 129 128 126 126 125 125 123 123 119 120 122 126
71 72 70 68 66 66 65 64 65 65 65 64 67 72 72 72 74 77 82 86 91 95 97 99 99 104 104 101 101 112 117 120 121 122 130 134 130 132 134 129 126 129 132 130 130 128 119 123 127
74 70 69 69 67 67 66 65 64 64 63 64 65 68 73 72 72 75 78 84 90 94 97 100 101 101 100 100 97 100 114 123 122 125 129 132 136 136 134 131 129 132 135 137 137 142 141 130 146
79 72 69 68 68 68 68 66 64 64 63 63 64 63 65 70 73 75 77 81 87 90 93 97 98 96 97 100 101 102 107 117 127 134 137 132 139 147 140 138 134 133 135 147 146 158 163 185 212
85 79 73 69 67 68 68 66 64 62 62 61 61 61 62 68 71 71 76 80 82 87 90 94 98 94 94 98 101 101 104 108 115 122 136 139 136 143 146 153 157 159 151 155 160 170 198 246 249
89 85 76 70 67 67 68 65 63 61 60 59 58 59 61 63 65 67 70 76 78 83 90 97 100 93 92 95 96 100 101 103 106 112 121 131 132 136 149 158 170 178 174 171 193 220 238 266 253
94 80 71 68 67 68 69 63 59 58 57 57 57 57 59 61 62 63 65 69 72 78 87 94 98 96 94 92 92 96 99 101 101 106 108 113 115 119 131 134 169 193 199 208 227 249 264 266 266
110 95 88 72 65 64 68 64 58 56 55 55 56 55 57 59 60 60 63 65 68 73 80 87 91 93 92 90 90 90 92 92 92 97 103 110 112 114 113 113 131 186 209 224 242 254 267 273 275
178 159 130 89 65 63 67 62 56 55 53 52 52 53 54 59 62 61 63 64 65 69 78 81 81 83 84 85 84 84 84 85 84 88 96 97 90 94 95 91 86 102 207 235 260 269 270 270 275
200 193 197 173 98 69 60 56 52 55 51 48 48 50 52 58 64 64 63 63 64 67 73 77 77 77 79 80 79 80 80 80 83 86 89 90 80 76 75 65 51 15 327 292 288 278 274 282 286
209 208 219 225 202 130 49 44 38 51 52 46 43 44 45 49 58 63 62 61 62 66 69 73 75 73 72 71 70 71 74 74 74 74 68 71 59 46 35 16 356 350 319 293 288 294 297 294 294
216 219 225 236 233 238 297 352 353 9 37 40 34 34 38 38 47 56 57 57 59 65 70 71 71 70 67 64 62 62 64 63 59 56 49 46 45 37 34 11 342 325 317 318 315 311 313 309 302
224 228 229 232 246 273 270 286 303 302 344 6 15 17 22 24 29 39 49 53 52 54 62 66 63 61 57 53 52 52 54 52 46 41 35 31 35 31 23 8 341 325 320 318 319 318 313 311 311
227 232 233 238 245 254 266 258 273 279 293 316 329 346 354 358 5 8 20 34 38 40 48 55 55 52 47 43 43 45 42 36 31 30 26 23 22 17 11 4 349 335 327 323 323 318 315 312 313
230 234 239 244 248 252 254 252 260 269 274 282 289 310 321 317 328 337 342 339 358 13 21 32 38 37 34 33 31 31 28 25 22 20 19 19 17 13 6 359 348 334 324 319 318 317 314 312 311
230 232 238 245 248 251 254 251 251 258 261 265 275 293 298 294 296 307 319 312 311 332 352 5 19 25 24 23 22 19 13 7 5 6 4 2 2 0 356 350 344 339 332 325 319 315 314 312 310
230 230 232 238 246 254 261 258 252 252 254 262 270 279 281 275 274 285 292 292 286 298 313 325 345 1 5 7 5 1 357 354 352 349 349 347 344 342 341 337 336 334 333 328 324 320 316 313 310
232 232 233 239 246 249 256 263 255 248 253 260 264 268 270 266 266 273 277 277 272 277 294 301 306 319 328 336 341 344 345 342 343 343 342 339 336 333 332 328 329 327 328 326 323 320 315 313 312
231 233 233 233 240 246 254 259 256 249 252 256 257 258 261 263 266 267 268 265 266 271 281 291 296 296 305 316 326 329 332 336 336 337 342 344 341 334 329 326 324 322 320 318 316 315 313 310 309
231 232 235 236 238 242 249 256 257 256 252 250 254 257 261 265 267 266 261 261 267 272 279 283 291 291 294 299 310 316 318 321 327 330 331 333 332 330 328 326 326 323 321 319 314 312 313 310 311
232 233 234 236 241 244 245 252 257 255 250 248 252 257 262 267 268 266 261 263 266 270 276 280 283 287 291 296 299 303 311 313 314 315 318 321 322 323 322 321 321 320 318 316 314 313 315 311 308
Height
5889 5887 5886 5886 5886 5886 5884 5882 5881 5879 5877 5876 5875 5875 5874 5874 5875 5877 5874 5872 5872 5872 5871 5871 5871 5871 5871 5871 5871 5871 5870 5870 5870 5869 5870 5870 5871 5871 5872 5873 5875 5876 5877 5879 5880 5881 5883 5884 5885
5892 5890 5889 5888 5889 5888 5886 5884 5882 5880 5879 5877 5876 5876 5875 5875 5875 5874 5873 5873 5873 5873 5872 5872 5872 5872 5872 5872 5872 5872 5872 5872 5872 5872 5872 5872 5873 5874 5875 5876 5877 5878 5879 5881 5882 5883 5885 5886 5887
5894 5893 5892 5892 5891 5890 5888 5886 5883 5881 5880 5879 5878 5877 5877 5876 5876 5875 5875 5874 5874 5874 5874 5874 5874 5874 5873 5873 5874 5874 5874 5874 5874 5874 5874 5875 5876 5876 5877 5878 5879 5880 5882 5883 5884 5885 5886 5887 5888
5897 5896 5896 5896 5893 5892 5890 5887 5885 5883 5882 5880 5879 5879 5878 5877 5877 5876 5876 5876 5875 5875 5875 5875 5875 5875 5875 5875 5875 5875 5875 5875 5876 5876 5876 5877 5878 5878 5879 5880 5881 5882 5884 5885 5886 5887 5888 5889 5890
5900 5899 5900 5898 5896 5894 5892 5889 5887 5885 5883 5882 5881 5880 5879 5879 5878 5878 5877 5877 5877 5877 5876 5877 5877 5877 5876 5876 5876 5876 5877 5877 5878 5878 5878 5879 5880 5880 5881 5882 5883 5884 5885 5886 5887 5889 5890 5891 5892
5903 5903 5904 5901 5898 5896 5894 5892 5890 5887 5886 5884 5883 5882 5881 5880 5880 5879 5879 5879 5878 5878 5878 5878 5878 5878 5878 5878 5877 5878 5878 5879 5879 5880 5880 5881 5882 5883 5884 5885 5885 5886 5887 5888 5889 5890 5891 5892 5893
5906 5906 5905 5903 5901 5898 5897 5894 5892 5890 5888 5887 5885 5884 5883 5882 5882 5881 5881 5880 5880 5880 5880 5880 5880 5880 5880 5878 5878 5879 5880 5880 5881 5882 5882 5883 5884 5884 5886 5887 5887 5888 5889 5890 5891 5892 5892 5893 5894
5908 5909 5907 5906 5903 5901 5899 5896 5894 5892 5891 5889 5888 5887 5886 5885 5884 5883 5883 5882 5882 5882 5882 5882 5882 5882 5881 5880 5880 5881 5881 5882 5882 5883 5884 5885 5885 5886 5887 5888 5889 5890 5891 5892 5893 5893 5894 5895 5895
5911 5913 5911 5908 5906 5904 5901 5899 5897 5895 5893 5892 5891 5889 5888 5887 5886 5886 5885 5885 5885 5884 5884 5884 5884 5883 5883 5882 5881 5882 5883 5883 5884 5885 5886 5886 5887 5888 5889 5890 5891 5892 5893 5894 5894 5895 5895 5896 5896
5914 5915 5913 5910 5908 5906 5904 5901 5900 5898 5896 5895 5893 5892 5891 5890 5889 5888 5888 5887 5887 5886 5886 5886 5885 5885 5885 5884 5883 5884 5884 5885 5886 5886 5887 5888 5889 5890 5890 5891 5892 5893 5894 5895 5895 5896 5896 5896 5897
5917 5916 5914 5912 5910 5909 5906 5904 5903 5901 5899 5898 5896 5895 5893 5892 5892 5891 5890 5890 5889 5889 5888 5888 5887 5887 5886 5886 5885 5886 5886 5887 5887 5888 5889 5889 5890 5891 5892 5893 5893 5894 5895 5896 5896 5896 5897 5897 5897
5919 5918 5916 5915 5913 5911 5909 5907 5906 5904 5902 5900 5899 5897 5896 5895 5894 5893 5893 5892 5892 5891 5890 5889 5889 5889 5888 5888 5887 5887 5888 5888 5889 5889 5890 5891 5892 5892 5893 5894 5894 5895 5895 5896 5896 5897 5897 5897 5897
5921 5920 5919 5917 5916 5914 5912 5910 5909 5907 5905 5903 5902 5900 5899 5898 5897 5896 5895 5894 5894 5893 5892 5892 5891 5890 5890 5890 5890 5889 5889 5890 5890 5891 5891 5892 5893 5893 5894 5895 5895 5896 5896 5896 5896 5897 5897 5897 5897
5922 5921 5920 5919 5918 5916 5915 5913 5912 5910 5908 5907 5905 5903 5902 5901 5900 5899 5898 5897 5896 5895 5894 5894 5893 5893 5892 5892 5891 5891 5891 5892 5892 5892 5892 5893 5894 5894 5895 5895 5896 5896 5897 5897 5897 5897 5897 5897 5897
5923 5923 5923 5921 5920 5919 5918 5916 5914 5913 5911 5909 5908 5906 5905 5904 5902 5901 5900 5899 5898 5897 5897 5896 5895 5895 5894 5894 5894 5893 5893 5893 5893 5893 5893 5894 5895 5895 5895 5896 5896 5897 5897 5897 5897 5897 5897 5897 5896
5924 5925 5925 5924 5922 5921 5921 5919 5917 5915 5914 5912 5910 5909 5908 5906 5905 5904 5903 5902 5901 5900 5899 5898 5897 5897 5896 5896 5896 5895 5895 5895 5894 5894 5894 5895 5895 5896 5896 5896 5897 5897 5897 5897 5897 5897 5897 5896 5896
5926 5927 5927 5926 5924 5923 5922 5921 5919 5917 5916 5914 5913 5912 5910 5909 5908 5906 5905 5904 5903 5902 5901 5900 5900 5899 5899 5898 5898 5897 5897 5896 5896 5896 5896 5896 5896 5896 5896 5897 5897 5896 5897 5897 5896 5896 5896 5895 5895
5928 5927 5927 5926 5925 5924 5923 5922 5921 5919 5918 5916 5915 5914 5913 5911 5910 5909 5908 5907 5906 5904 5903 5903 5902 5901 5901 5900 5900 5899 5899 5898 5898 5897 5897 5897 5897 5897 5897 5897 5897 5896 5896 5896 5896 5895 5895 5895 5894
5926 5926 5927 5926 5925 5925 5924 5924 5922 5921 5920 5918 5917 5916 5915 5914 5913 5911 5910 5909 5908 5907 5906 5905 5904 5904 5903 5902 5902 5901 5900 5900 5899 5899 5898 5898 5897 5897 5897 5897 5896 5896 5896 5896 5895 5895 5894 5894 5893
5924 5925 5926 5926 5925 5925 5925 5924 5923 5922 5921 5920 5919 5918 5917 5916 5915 5914 5913 5911 5910 5909 5908 5907 5906 5906 5905 5904 5903 5903 5902 5901 5900 5900 5899 5898 5898 5897 5897 5896 5896 5896 5896 5895 5894 5894 5893 5893 5892
5922 5924 5925 5925 5925 5925 5925 5925 5924 5923 5922 5921 5920 5919 5918 5917 5916 5915 5915 5913 5912 5911 5910 5909 5909 5908 5907 5906 5905 5904 5903 5902 5902 5901 5900 5899 5898 5897 5897 5896 5896 5896 5895 5894 5894 5893 5892 5891 5890
5920 5921 5923 5924 5924 5925 5925 5927 5925 5923 5922 5922 5921 5920 5919 5918 5917 5917 5916 5915 5914 5913 5912 5911 5910 5909 5908 5907 5906 5905 5904 5904 5903 5902 5901 5900 5899 5898 5897 5896 5896 5895 5894 5894 5893 5892 5891 5890 5889
5917 5919 5920 5921 5922 5924 5924 5925 5926 5923 5922 5922 5921 5920 5920 5919 5918 5917 5916 5916 5915 5914 5913 5912 5912 5911 5909 5908 5907 5906 5905 5904 5903 5902 5901 5900 5899 5898 5897 5896 5895 5894 5893 5892 5892 5891 5890 5889 5888
5913 5916 5917 5918 5920 5921 5922 5923 5924 5922 5922 5921 5921 5920 5919 5919 5918 5917 5917 5916 5915 5915 5914 5913 5912 5911 5910 5909 5908 5907 5906 5904 5903 5902 5901 5900 5899 5898 5897 5896 5894 5893 5892 5891 5890 5889 5888 5887 5886
5910 5913 5916 5917 5918 5919 5919 5919 5921 5920 5920 5920 5919 5919 5918 5918 5917 5917 5916 5916 5915 5915 5914 5913 5913 5912 5911 5910 5909 5907 5905 5904 5903 5902 5901 5900 5899 5897 5896 5895 5893 5892 5891 5890 5889 5888 5886 5885 5884
5905 5910 5913 5916 5917 5917 5915 5916 5919 5917 5917 5917 5918 5917 5917 5916 5916 5916 5915 5915 5914 5914 5914 5913 5913 5912 5911 5910 5909 5907 5905 5904 5903 5902 5901 5900 5898 5897 5895 5894 5893 5891 5890 5889 5887 5886 5884 5883 5881
5901 5904 5908 5911 5912 5913 5914 5913 5914 5914 5915 5915 5915 5915 5915 5915 5914 5914 5914 5914 5913 5913 5913 5913 5912 5911 5910 5909 5908 5907 5905 5904 5902 5901 5899 5898 5897 5896 5894 5893 5891 5890 5888 5887 5885 5884 5882 5880 5878
5896 5899 5902 5905 5907 5909 5910 5910 5911 5911 5912 5913 5913 5913 5912 5912 5912 5912 5912 5912 5912 5912 5912 5911 5911 5910 5909 5908 5907 5906 5904 5902 5901 5899 5898 5897 5896 5894 5893 5891 5889 5888 5886 5885 5883 5881 5879 5877 5875
5889 5893 5895 5899 5902 5904 5907 5909 5907 5908 5908 5909 5909 5909 5910 5910 5910 5910 5910 5910 5910 5910 5910 5909 5909 5908 5908 5907 5906 5904 5903 5901 5899 5898 5897 5896 5894 5893 5891 5889 5887 5885 5883 5881 5880 5878 5876 5874 5872
5883 5886 5889 5893 5895 5897 5901 5906 5902 5903 5904 5905 5906 5906 5906 5906 5907 5907 5907 5907 5907 5907 5907 5907 5906 5906 5905 5904 5904 5902 5901 5899 5898 5896 5895 5894 5892 5890 5889 5887 5885 5883 5880 5878 5876 5874 5872 5870 5868